Location: St. Louis
(38.6270°N, 90.1994°W)
Time: 22:07:18
(UTC-05:00)

deb Kosmos-468 - Pass Details

Date: 14 August 2022
Orbit: 584 x 585 km, 74.0° (Epoch: 30 September)

Event Time Altitude Azimuth Distance (km) Brightness Sun altitude
Rises 00:58:23 0° 348° (NNW) 2,816 ? -37.0°
Reaches altitude 10° 01:00:42 10° 356° (N) 1,912 ? -37.0°
Enters shadow 01:01:19 14° 359° (N) 1,688 ? -37.0°
